GW3055 Weather Reports


time (UTC)temp
C
wind
direction
speed
KPH
gust
KPH
rain 1hr
cm
rain 24hr
cm
rain mn
cm
humidity
%
barometer
mb
20260507085543 12 0 0.0 0.0 0.00 0.00 0.00 83 1017.5
20260507085043 12 0 0.0 0.0 0.00 0.00 0.00 83 1017.5
20260507084557 12 0 0.0 0.0 0.00 0.00 0.00 83 1017.6
20260507084048 12 0 0.0 0.0 0.00 0.00 0.00 82 1017.6
20260507083546 12 0 0.0 0.0 0.00 0.00 0.00 82 1017.7
20260507083051 12 0 0.0 0.0 0.00 0.00 0.00 82 1017.7
20260507082546 12 0 0.0 0.0 0.00 0.00 0.00 82 1017.7
20260507082045 12 0 0.0 0.0 0.00 0.00 0.00 82 1017.6
20260507081548 12 0 0.0 0.0 0.00 0.00 0.00 82 1017.7
20260507081045 12 0 0.0 0.0 0.00 0.00 0.00 82 1017.7
20260507080546 12 0 0.0 0.0 0.00 0.00 0.00 82 1017.7
20260507080117 12 0 0.0 0.0 0.00 0.00 0.00 82 1017.7
20260507075545 12 0 0.0 0.0 0.00 0.00 0.00 82 1017.7
20260507075043 12 0 0.0 0.0 0.00 0.00 0.00 82 1017.7
20260507074549 12 0 0.0 0.0 0.00 0.00 0.00 82 1017.8
20260507074042 12 0 0.0 0.0 0.00 0.00 0.00 82 1017.7
20260507073542 12 0 0.0 0.0 0.00 0.00 0.00 81 1017.6
20260507073105 12 0 0.0 0.0 0.00 0.00 0.00 81 1017.7
20260507072543 12 0 0.0 0.0 0.00 0.00 0.00 82 1017.7
20260507072045 12 0 0.0 0.0 0.00 0.00 0.00 80 1017.7
20260507071554 12 0 0.0 0.0 0.00 0.00 0.00 81 1017.8
20260507071045 12 0 0.0 0.0 0.00 0.00 0.00 81 1017.8
20260507070545 12 0 0.0 0.0 0.00 0.00 0.00 81 1017.8
20260507070100 12 0 0.0 0.0 0.00 0.00 0.00 81 1017.8
20260507065548 12 0 0.0 0.0 0.00 0.00 0.00 82 1018.0
20260507065042 12 0 0.0 0.0 0.00 0.00 0.00 81 1018.0
20260507064600 12 0 0.0 0.0 0.00 0.00 0.00 80 1018.0
20260507064044 12 0 0.0 0.0 0.00 0.00 0.00 79 1017.9
20260507063544 13 0 0.0 0.0 0.00 0.00 0.00 79 1018.0
20260507063059 13 0 0.0 0.0 0.00 0.00 0.00 78 1018.1
20260507062545 13 0 0.0 0.0 0.00 0.00 0.00 78 1018.1
20260507062045 13 0 0.0 0.0 0.00 0.00 0.00 76 1018.0
20260507061555 14 0 0.0 0.0 0.00 0.00 0.00 76 1018.0
20260507061041 14 0 0.0 1.6 0.00 0.00 0.00 76 1018.0
20260507060544 15 0 0.0 4.8 0.00 0.00 0.00 75 1018.0
20260507060056 15 0 0.0 4.8 0.00 0.00 0.00 75 1017.9
20260507055546 15 240 0.0 4.8 0.00 0.00 0.00 74 1018.0
20260507055046 15 231 1.6 4.8 0.00 0.00 0.00 74 1018.0
20260507054553 15 0 1.6 4.8 0.00 0.00 0.00 74 1018.0
20260507054043 15 230 1.6 4.8 0.00 0.00 0.00 74 1018.0
20260507053543 15 238 0.0 4.8 0.00 0.00 0.00 73 1018.1
20260507053113 15 235 0.0 4.8 0.00 0.00 0.00 73 1018.0
20260507052545 15 239 1.6 4.8 0.00 0.00 0.00 73 1017.9
20260507052043 15 240 0.0 6.4 0.00 0.00 0.00 73 1017.9
20260507051552 15 234 3.2 9.7 0.00 0.00 0.00 72 1017.9
20260507051045 15 235 3.2 9.7 0.00 0.00 0.00 72 1017.9
20260507050542 15 244 1.6 6.4 0.00 0.00 0.00 72 1017.9
20260507050057 15 233 1.6 6.4 0.00 0.00 0.00 72 1017.8
20260507045545 16 231 0.0 6.4 0.00 0.00 0.00 72 1017.8
20260507045042 16 235 1.6 4.8 0.00 0.00 0.00 72 1017.9
20260507044553 16 232 0.0 4.8 0.00 0.00 0.00 72 1017.8
20260507044045 16 235 1.6 4.8 0.00 0.00 0.00 72 1017.8
20260507043545 16 241 0.0 4.8 0.00 0.00 0.00 71 1017.8
20260507043049 16 240 1.6 6.4 0.00 0.00 0.00 71 1017.8
20260507042546 16 235 1.6 8.0 0.00 0.00 0.00 71 1017.8
20260507042045 16 237 1.6 8.0 0.00 0.00 0.00 70 1017.8
20260507041554 16 238 3.2 6.4 0.00 0.00 0.00 70 1017.8
20260507041047 16 240 1.6 6.4 0.00 0.00 0.00 70 1017.8
20260507040544 16 237 3.2 6.4 0.00 0.00 0.00 69 1017.7
20260507040056 16 240 3.2 8.0 0.00 0.00 0.00 69 1017.7
20260507035543 16 240 3.2 9.7 0.00 0.00 0.00 69 1017.6
20260507035043 16 237 3.2 9.7 0.00 0.00 0.00 68 1017.6
20260507034554 17 232 1.6 6.4 0.00 0.00 0.00 68 1017.5
20260507034045 17 237 1.6 6.4 0.00 0.00 0.00 67 1017.4
20260507033547 17 239 1.6 9.7 0.00 0.00 0.00 67 1017.3
20260507033054 17 240 0.0 9.7 0.00 0.00 0.00 67 1017.2
20260507032544 17 214 3.2 9.7 0.00 0.00 0.00 67 1017.2
20260507032043 17 221 1.6 9.7 0.00 0.00 0.00 67 1017.2
20260507031552 17 233 3.2 9.7 0.00 0.00 0.00 66 1017.1
20260507031046 17 227 3.2 11.3 0.00 0.00 0.00 66 1017.1
20260507030543 17 233 3.2 11.3 0.00 0.00 0.00 66 1017.1
20260507030051 18 261 4.8 9.7 0.00 0.00 0.00 66 1017.1
20260507025542 18 237 1.6 9.7 0.00 0.00 0.00 65 1017.0
20260507025045 18 237 3.2 12.9 0.00 0.00 0.00 65 1016.8
20260507024605 18 239 4.8 12.9 0.00 0.00 0.00 64 1016.9
20260507024048 18 257 3.2 12.9 0.00 0.00 0.00 63 1016.7
20260507023550 18 223 3.2 12.9 0.00 0.00 0.00 63 1016.7
20260507023051 19 244 3.2 12.9 0.00 0.00 0.00 62 1016.5
20260507022546 19 226 3.2 11.3 0.00 0.00 0.00 62 1016.4
20260507022044 20 0 3.2 11.3 0.00 0.00 0.00 61 1016.4
20260507021549 20 231 4.8 11.3 0.00 0.00 0.00 60 1016.4
20260507021043 20 249 1.6 9.7 0.00 0.00 0.00 58 1016.4
20260507020545 21 244 1.6 9.7 0.00 0.00 0.00 57 1016.3
20260507020109 21 0 1.6 8.0 0.00 0.00 0.00 55 1016.2
20260507015544 22 0 0.0 14.5 0.00 0.00 0.00 54 1016.2
20260507015043 22 184 3.2 14.5 0.00 0.00 0.00 54 1016.2
20260507014554 22 233 3.2 9.7 0.00 0.00 0.00 53 1016.1
20260507014042 23 234 1.6 14.5 0.00 0.00 0.00 52 1016.1
20260507013546 23 260 3.2 14.5 0.00 0.00 0.00 53 1016.1
20260507013055 23 229 1.6 12.9 0.00 0.00 0.00 53 1016.0
20260507012545 23 207 4.8 14.5 0.00 0.00 0.00 52 1016.0
20260507012046 23 209 4.8 14.5 0.00 0.00 0.00 52 1015.9
20260507011548 23 210 4.8 14.5 0.00 0.00 0.00 51 1015.9
20260507011045 23 242 6.4 14.5 0.00 0.00 0.00 50 1015.9
20260507010544 24 226 0.0 12.9 0.00 0.00 0.00 50 1015.8
20260507010051 23 247 3.2 12.9 0.00 0.00 0.00 50 1015.8
20260507005544 23 225 3.2 14.5 0.00 0.00 0.00 51 1015.8
20260507005045 23 240 4.8 14.5 0.00 0.00 0.00 50 1015.8
20260507004605 24 221 3.2 12.9 0.00 0.00 0.00 49 1015.8
20260507004044 24 237 1.6 12.9 0.00 0.00 0.00 50 1015.9
20260507003546 24 254 4.8 19.3 0.00 0.00 0.00 50 1015.8
20260507003052 23 238 6.4 19.3 0.00 0.00 0.00 51 1015.8
20260507002547 24 234 8.0 19.3 0.00 0.00 0.00 48 1015.8
20260507002044 23 240 3.2 16.1 0.00 0.00 0.00 49 1015.8
20260507001552 23 231 6.4 16.1 0.00 0.00 0.00 49 1015.8
20260507001043 23 251 3.2 17.7 0.00 0.00 0.00 50 1015.7
20260507000545 23 242 8.0 19.3 0.00 0.00 0.00 48 1015.9
20260507000052 24 220 4.8 19.3 0.00 0.00 0.00 48 1015.8
20260506235547 24 230 6.4 19.3 0.00 0.00 0.00 49 1015.8
20260506235043 25 254 6.4 19.3 0.00 0.00 0.00 47 1015.8
20260506234553 25 226 3.2 14.5 0.00 0.00 0.00 48 1015.7
20260506234044 24 235 6.4 14.5 0.00 0.00 0.00 48 1015.7
20260506233547 25 236 6.4 19.3 0.00 0.00 0.00 47 1015.8
20260506233110 25 233 6.4 19.3 0.00 0.00 0.00 48 1015.8
20260506232543 25 251 3.2 14.5 0.00 0.00 0.00 48 1015.8
20260506232047 25 255 3.2 19.3 0.00 0.00 0.00 48 1015.8
20260506231600 25 244 3.2 19.3 0.00 0.00 0.00 49 1015.9
20260506231045 25 235 4.8 17.7 0.00 0.00 0.00 48 1015.8
20260506230547 25 231 4.8 17.7 0.00 0.00 0.00 49 1015.8
20260506230059 25 260 6.4 16.1 0.00 0.00 0.00 47 1015.9
20260506225544 25 258 4.8 14.5 0.00 0.00 0.00 48 1015.8
20260506225047 25 231 6.4 17.7 0.00 0.00 0.00 47 1015.9
20260506224554 25 250 6.4 17.7 0.00 0.00 0.00 49 1015.9
20260506224047 25 227 4.8 17.7 0.00 0.00 0.00 47 1016.0
20260506223543 24 214 8.0 19.3 0.00 0.00 0.00 48 1016.0
20260506223055 24 235 11.3 19.3 0.00 0.00 0.00 46 1016.0
20260506222543 24 247 4.8 14.5 0.00 0.00 0.00 46 1016.1
20260506222044 25 212 6.4 14.5 0.00 0.00 0.00 47 1016.2
20260506221553 25 224 3.2 12.9 0.00 0.00 0.00 44 1016.1
20260506221045 24 202 4.8 16.1 0.00 0.00 0.00 50 1016.2
20260506220550 24 239 6.4 16.1 0.00 0.00 0.00 47 1016.2
20260506220057 24 240 1.6 17.7 0.00 0.00 0.00 49 1016.4
20260506215546 24 229 4.8 17.7 0.00 0.00 0.00 47 1016.5
20260506215044 23 218 8.0 17.7 0.00 0.00 0.00 47 1016.5
20260506214555 23 219 3.2 12.9 0.00 0.00 0.00 49 1016.5
20260506214043 24 223 6.4 17.7 0.00 0.00 0.00 47 1016.6
20260506213545 24 258 0.0 17.7 0.00 0.00 0.00 51 1016.7
20260506213111 24 243 3.2 16.1 0.00 0.00 0.00 48 1016.7
20260506212544 24 166 1.6 16.1 0.00 0.00 0.00 48 1016.8
20260506212047 24 231 1.6 11.3 0.00 0.00 0.00 49 1016.9
20260506211553 24 226 4.8 12.9 0.00 0.00 0.00 48 1016.9
20260506211045 23 172 0.0 16.1 0.00 0.00 0.00 50 1016.9
20260506210545 23 234 3.2 16.1 0.00 0.00 0.00 51 1017.2
20260506210054 23 233 6.4 16.1 0.00 0.00 0.00 48 1017.2
20260506205547 23 0 1.6 16.1 0.00 0.00 0.00 49 1017.2
20260506205047 23 251 3.2 17.7 0.00 0.00 0.00 49 1017.4
20260506204553 22 235 0.0 17.7 0.00 0.00 0.00 53 1017.4
20260506204046 23 246 6.4 11.3 0.00 0.00 0.00 50 1017.6
20260506203546 23 302 4.8 11.3 0.00 0.00 0.00 49 1017.5
20260506203052 22 237 1.6 12.9 0.00 0.00 0.00 52 1017.4
20260506202547 22 256 4.8 12.9 0.00 0.00 0.00 50 1017.6
20260506202046 22 273 4.8 11.3 0.00 0.00 0.00 48 1017.5
20260506201549 22 236 3.2 11.3 0.00 0.00 0.00 51 1017.6
20260506201044 23 102 3.2 11.3 0.00 0.00 0.00 51 1017.6
20260506200545 23 249 1.6 12.9 0.00 0.00 0.00 51 1017.8
20260506200052 22 273 4.8 12.9 0.00 0.00 0.00 52 1017.8
20260506195545 22 243 3.2 12.9 0.00 0.00 0.00 49 1017.9
20260506195048 22 0 1.6 16.1 0.00 0.00 0.00 52 1018.0
20260506194601 22 0 3.2 16.1 0.00 0.00 0.00 52 1018.1
20260506194045 22 230 3.2 8.0 0.00 0.00 0.00 51 1018.1
20260506193546 22 246 3.2 14.5 0.00 0.00 0.00 55 1018.1
20260506193053 22 235 4.8 14.5 0.00 0.00 0.00 52 1018.2
20260506192546 21 162 4.8 16.1 0.00 0.00 0.00 55 1018.0
20260506192048 21 243 3.2 16.1 0.00 0.00 0.00 57 1018.2
20260506191555 21 247 1.6 12.9 0.00 0.00 0.00 57 1018.3
20260506191043 21 251 1.6 11.3 0.00 0.00 0.00 53 1018.3
20260506190545 21 264 4.8 11.3 0.00 0.00 0.00 54 1018.4
20260506190053 20 249 3.2 16.1 0.00 0.00 0.00 55 1018.4
20260506185545 20 208 4.8 16.1 0.00 0.00 0.00 55 1018.4
20260506185045 21 230 1.6 11.3 0.00 0.00 0.00 56 1018.5
20260506184601 20 227 3.2 11.3 0.00 0.00 0.00 55 1018.5
20260506184045 20 219 3.2 9.7 0.00 0.00 0.00 56 1018.6
20260506183543 21 246 1.6 8.0 0.00 0.00 0.00 57 1018.6
20260506183103 20 244 1.6 9.7 0.00 0.00 0.00 61 1018.7
20260506182545 20 239 4.8 9.7 0.00 0.00 0.00 55 1018.7
20260506182045 21 244 3.2 9.7 0.00 0.00 0.00 57 1018.7
20260506181624 20 261 1.6 11.3 0.00 0.00 0.00 60 1018.7
20260506181047 20 114 3.2 11.3 0.00 0.00 0.00 58 1018.7
20260506180547 20 0 0.0 9.7 0.00 0.00 0.00 61 1018.8
20260506180054 20 166 3.2 8.0 0.00 0.00 0.00 59 1018.7
20260506175547 19 221 1.6 9.7 0.00 0.00 0.00 60 1018.8
20260506175046 19 230 1.6 9.7 0.00 0.00 0.00 57 1018.8
20260506174551 19 237 4.8 9.7 0.00 0.00 0.00 58 1018.7
20260506174043 20 267 0.0 6.4 0.00 0.00 0.00 58 1018.7
20260506173544 19 216 1.6 9.7 0.00 0.00 0.00 58 1018.7
20260506173108 18 0 0.0 9.7 0.00 0.00 0.00 65 1018.8
20260506172547 18 0 3.2 9.7 0.00 0.00 0.00 59 1018.8
20260506172047 18 230 1.6 6.4 0.00 0.00 0.00 61 1018.8
20260506171552 18 158 0.0 4.8 0.00 0.00 0.00 61 1018.8
20260506171045 18 0 1.6 4.8 0.00 0.00 0.00 60 1018.8
20260506170546 18 0 0.0 6.4 0.00 0.00 0.00 63 1018.8
20260506170059 18 236 1.6 6.4 0.00 0.00 0.00 63 1018.8
20260506165545 18 0 0.0 4.8 0.00 0.00 0.00 63 1018.7
20260506165046 18 0 0.0 3.2 0.00 0.00 0.00 62 1018.7
20260506164613 18 0 0.0 3.2 0.00 0.00 0.00 63 1018.7
20260506164043 17 242 0.0 6.4 0.00 0.00 0.00 62 1018.8
20260506163542 17 239 0.0 6.4 0.00 0.00 0.00 68 1018.8
20260506163100 17 237 0.0 4.8 0.00 0.00 0.00 67 1018.8
20260506162542 17 251 0.0 4.8 0.00 0.00 0.00 65 1018.8
20260506162049 17 233 1.6 4.8 0.00 0.00 0.00 63 1018.7
20260506161557 17 0 0.0 4.8 0.00 0.00 0.00 70 1018.8
20260506161048 17 152 0.0 3.2 0.00 0.00 0.00 67 1018.7
20260506160545 16 228 0.0 3.2 0.00 0.00 0.00 71 1018.8
20260506160108 16 170 0.0 4.8 0.00 0.00 0.00 72 1018.7
20260506155549 15 173 1.6 4.8 0.00 0.00 0.00 75 1018.7
20260506155045 15 76 0.0 4.8 0.00 0.00 0.00 74 1018.7
20260506154603 15 0 1.6 4.8 0.00 0.00 0.00 75 1018.7
20260506154045 15 0 0.0 4.8 0.00 0.00 0.00 77 1018.7
20260506153547 15 101 0.0 3.2 0.00 0.00 0.00 77 1018.7
20260506153115 15 180 0.0 3.2 0.00 0.00 0.00 78 1018.8
20260506152546 14 0 0.0 3.2 0.00 0.00 0.00 78 1018.8
20260506152044 13 164 0.0 3.2 0.00 0.00 0.00 81 1018.7
20260506151559 13 0 0.0 1.6 0.00 0.00 0.00 82 1018.8
20260506151046 13 192 0.0 1.6 0.00 0.00 0.00 82 1018.8
20260506150544 13 0 0.0 1.6 0.00 0.00 0.00 83 1018.7
20260506150058 13 0 0.0 3.2 0.00 0.00 0.00 83 1018.7
20260506145541 12 0 0.0 3.2 0.00 0.00 0.00 85 1018.7
20260506145041 12 0 0.0 1.6 0.00 0.00 0.00 86 1018.8
20260506144555 12 179 0.0 1.6 0.00 0.00 0.00 86 1018.8
20260506144041 12 0 0.0 1.6 0.00 0.00 0.00 88 1018.7
20260506143544 11 0 0.0 1.6 0.00 0.00 0.00 89 1018.6
20260506143050 11 0 0.0 1.6 0.00 0.00 0.00 90 1018.5
20260506142541 11 0 0.0 0.0 0.00 0.00 0.00 91 1018.5
20260506142044 11 0 0.0 0.0 0.00 0.00 0.00 92 1018.4
20260506141553 10 0 0.0 0.0 0.00 0.00 0.00 92 1018.5
20260506141042 10 0 0.0 0.0 0.00 0.00 0.00 92 1018.5
20260506140546 10 0 0.0 0.0 0.00 0.00 0.00 92 1018.5
20260506140054 10 0 0.0 0.0 0.00 0.00 0.00 92 1018.4
20260506135540 9 0 0.0 0.0 0.00 0.00 0.00 92 1018.5
20260506135042 9 0 0.0 0.0 0.00 0.00 0.00 92 1018.4
20260506134554 9 0 0.0 0.0 0.00 0.00 0.00 92 1018.4
20260506134046 9 0 0.0 0.0 0.00 0.00 0.00 92 1018.4
20260506133544 8 0 0.0 0.0 0.00 0.00 0.00 92 1018.4
20260506133054 8 0 0.0 0.0 0.00 0.00 0.00 92 1018.3
20260506132545 8 0 0.0 0.0 0.00 0.00 0.00 91 1018.2
20260506132047 8 0 0.0 0.0 0.00 0.00 0.00 91 1018.2
20260506131554 8 0 0.0 0.0 0.00 0.00 0.00 91 1018.1
20260506131044 8 0 0.0 0.0 0.00 0.00 0.00 90 1018.1
20260506130543 8 0 0.0 0.0 0.00 0.00 0.00 90 1018.1
20260506130050 8 0 0.0 0.0 0.00 0.00 0.00 91 1018.0
20260506125543 8 0 0.0 0.0 0.00 0.03 0.00 90 1017.9
20260506125040 8 0 0.0 0.0 0.00 0.03 0.00 90 1018.0
20260506124550 8 0 0.0 0.0 0.00 0.03 0.00 90 1017.9
20260506124044 8 0 0.0 0.0 0.00 0.03 0.00 90 1017.8
20260506123542 8 0 0.0 0.0 0.00 0.03 0.00 91 1017.8
20260506123054 8 0 0.0 0.0 0.00 0.03 0.00 91 1017.8
20260506122542 8 0 0.0 0.0 0.00 0.03 0.00 90 1017.7
20260506122044 8 0 0.0 0.0 0.00 0.03 0.00 90 1017.9
20260506121547 8 0 0.0 0.0 0.00 0.03 0.00 90 1017.8
20260506121044 8 0 0.0 0.0 0.00 0.03 0.00 91 1017.7
20260506120544 8 0 0.0 0.0 0.00 0.03 0.00 91 1017.6
20260506120053 8 0 0.0 0.0 0.00 0.03 0.00 91 1017.6
20260506115544 8 0 0.0 0.0 0.00 0.03 0.00 90 1017.6
20260506115045 8 0 0.0 0.0 0.00 0.03 0.00 91 1017.6
20260506114558 8 0 0.0 0.0 0.00 0.03 0.00 90 1017.6
20260506114043 8 0 0.0 0.0 0.00 0.03 0.00 91 1017.6
20260506113546 8 0 0.0 0.0 0.00 0.03 0.00 91 1017.6
20260506113056 8 0 0.0 1.6 0.00 0.03 0.00 90 1017.7
20260506112545 9 0 0.0 1.6 0.00 0.03 0.00 91 1017.6
20260506112045 9 215 0.0 1.6 0.00 0.03 0.00 91 1017.6
20260506111551 9 0 0.0 1.6 0.00 0.03 0.00 91 1017.6
20260506111046 9 0 0.0 1.6 0.00 0.03 0.00 91 1017.6
20260506110545 9 0 0.0 0.0 0.00 0.03 0.00 91 1017.5
20260506110054 9 0 0.0 0.0 0.00 0.03 0.00 90 1017.5
20260506105549 9 0 0.0 0.0 0.00 0.05 0.00 90 1017.4
20260506105048 10 0 0.0 0.0 0.00 0.05 0.00 90 1017.4
20260506104558 10 0 0.0 0.0 0.00 0.05 0.00 90 1017.4
20260506104045 10 0 0.0 0.0 0.00 0.05 0.00 90 1017.4
20260506103546 10 0 0.0 0.0 0.00 0.05 0.00 90 1017.5
20260506103056 10 0 0.0 0.0 0.00 0.05 0.00 90 1017.6
20260506102546 10 0 0.0 0.0 0.00 0.05 0.00 91 1017.5
20260506102047 10 0 0.0 3.2 0.00 0.05 0.00 90 1017.5
20260506101552 10 0 0.0 3.2 0.00 0.05 0.00 90 1017.4
20260506101043 10 0 0.0 3.2 0.00 0.05 0.00 91 1017.4
20260506100549 10 0 0.0 1.6 0.00 0.05 0.00 90 1017.5
20260506100052 10 0 0.0 1.6 0.00 0.05 0.00 90 1017.6
20260506095548 10 0 0.0 1.6 0.00 0.05 0.00 91 1017.6
20260506095045 10 0 0.0 3.2 0.00 0.05 0.00 91 1017.6
20260506094552 10 0 0.0 3.2 0.00 0.05 0.00 91 1017.5
20260506094044 10 0 0.0 0.0 0.00 0.05 0.00 90 1017.5
20260506093547 10 0 0.0 0.0 0.00 0.05 0.00 90 1017.5
20260506093053 10 0 0.0 0.0 0.00 0.05 0.00 90 1017.4
20260506092547 10 0 0.0 0.0 0.00 0.05 0.00 90 1017.5
20260506092046 10 0 0.0 0.0 0.00 0.05 0.00 89 1017.6
20260506091600 10 0 0.0 0.0 0.00 0.05 0.00 90 1017.7
20260506091045 10 0 0.0 0.0 0.00 0.05 0.00 90 1017.7
20260506090548 10 0 0.0 0.0 0.00 0.05 0.00 89 1017.7
20260506090059 10 0 0.0 0.0 0.00 0.05 0.00 89 1017.7